Regional Weather Roundup
Issued by NWS Lake Charles, LA

Home | Current Version | Previous Version | Text Only | Print | Product List | Glossary On
Versions: 1 2 3 4 5 6 7 8 9 10 11 12 13 14 15 16 17 18 19 20 21 22 23 24 25 26 27 28 29 30 31 32 33 34 35 36 37 38 39 40 41 42 43 44 45 46 47 48 49 50
000
ASUS44 KLCH 260010
RWRLCH
RWRLCH
REGIONAL WEATHER ROUNDUP
NATIONAL WEATHER SERVICE LAKE CHARLES LA
600 PM CST SUN JAN 25 2015

Note: "fair" indicates few or no clouds below 12,000 feet with no
significant weather and/or obstructions to visibility.


ACROSS SOUTHEAST TEXAS

CITY           SKY/WX    TMP DP  RH WIND       PRES   REMARKS
BEAUMONT       CLEAR     61  43  51 W8        29.96R
BEAUMONT CITY    N/A     62  44  51 W8        29.98R
ORANGE         CLEAR     64  41  42 W5        29.97R
JASPER         CLEAR     63  30  29 W10       29.99R
$$

ACROSS CENTRAL LOUISIANA

CITY           SKY/WX    TMP DP  RH WIND       PRES   REMARKS
LEESVILLE      CLEAR     62  38  42 NW12      29.93R
FULLERTON        N/A     62  39  42 CALM      29.90S
ALEXANDRIA INT CLEAR     62  37  39 W12       29.90R
ESLER FIELD    CLEAR     62  35  36 W7        29.90R
DERIDDER         N/A     61  40  46 CALM      29.95R
OAKDALE        CLEAR     64  36  36 NW7G18    29.92R
OPELOUSAS        N/A     62  42  48 NW8       29.91R
$$

ACROSS SOUTHWEST AND SOUTH CENTRAL LOUISIANA

CITY           SKY/WX    TMP DP  RH WIND       PRES   REMARKS
SULPHUR        CLEAR     62  37  38 W9        29.96R
LAKE CHARLES   CLEAR     64  36  35 W10G21    29.94R
CHENNAULT INT  NOT AVBL
CAMERON PHI    CLEAR     57  50  77 W9G17     29.98R
DEQUINCY         N/A     61  40  46 W6        29.95R
JENNINGS         N/A     58  45  62 W7        29.93R
LAFAYETTE      CLEAR     58  46  64 W9        29.91R
NEW IBERIA     CLEAR     58  45  62 W9        29.92R
ABBEVILLE        N/A     56  45  65 SW10      29.92R
PATTERSON      CLEAR     55  45  67 W21       29.91F
SALT POINT       N/A     56  50  80 W10       29.90F
$$

SELECTED SITES ACROSS THE REGION

CITY           SKY/WX    TMP DP  RH WIND       PRES   REMARKS
HOUSTON BUSH   PTCLDY    63  38  39 W9        30.03R
HOUSTON HOBBY  MOCLDY    64  40  41 W8        30.03S
GALVESTON      MOCLDY    60  49  66 W7        30.03R
COLLEGE STAT   CLEAR     64  29  26 NW14      30.06S
CONROE         CLEAR     62  36  37 NW10      30.03R
HUNTSVILLE     CLEAR     64  31  28 NW9       30.04R
LUFKIN         CLEAR     64  28  25 W9        30.00R
SHREVEPORT     PTCLDY    59  30  33 NW17      29.97R
MONROE         MOCLDY    59  36  42 NW12      29.91R
NATCHEZ MS     CLEAR     61  37  41 W10       29.89R
BATON ROUGE    CLEAR     60  42  51 SW10      29.88R
N.O. INTL ARPT PTCLDY    59  39  47 SW18      29.86F
SLIDELL        CLEAR     59  40  49 VRB5      29.86R
$$

MARINE REPORTS

STATION/POSITION TIME  TEMP    WIND        PRES    VSBY  WAVE
                       AIR SEA DIR/SP/G                  HT/PER
                 (UTC) (F)     (DEG/KT/KT) (MB)    (MI)  (FT/S)
BUOY 30 S HIGH I 0000   59 55  250/ 14/ 16 1015.7R         4/ 6
SEA RIM ST PARK  0000   58     260/  9/ 10 1015.5R
PORT ARTHUR      0000      53  270/ 11/ 14 1014.5R
SABINE PASS N    0000   60 53  240/  3/  9 1014.5F
TEXAS POINT      NOT AVBL
CALCASIEU PASS   0000   57 53  260/ 14/ 17   N/A
LK CHARLES BEACH 0000   64 53              1013.9R
MARSH ISLAND     NOT AVBL
FRESH WATER LOCK 0000   57 54  240/ 14/ 21 1013.3F
AMERADA PASS     0000   55 48  230/  7/ 15 1013.1F
$$


USA.gov is the U.S. government's official web portal to all federal, state and local government web resources and services.